This demonstration page uses our WeatherBlox Daily Observations layout. Learn more.

Left ArrowRight Arrow

36.17497, -115.13722

Hourly Observations for August 15, 2021

Temp ( °F °C ) Dew Point ( °F °C ) Humidity (%) Winds ( mph kmh ) Pressure ( in mb ) Visibility ( mi km ) Precip ( " mm )
12:53 am 00:53 Clear 93 33.9 56 13.3 29 29 Calm 29.92 1013 10 16 0.00 0.00
1:53 am 01:53 Clear 92 33.3 57 13.9 31 31 E 5 7 29.91 1013 10 16 0.00 0.00
2:53 am 02:53 Clear 91 32.8 56 13.3 31 31 NE 3 6 29.91 1013 10 16 0.00 0.00
3:53 am 03:53 Clear 89 31.7 59 15 36 36 N 5 7 29.92 1013 10 16 0.00 0.00
4:53 am 04:53 Clear 88 31.1 60 15.6 39 39 NE 5 7 29.93 1014 10 16 0.00 0.00
5:53 am 05:53 Clear 87 30.6 60 15.6 40 40 NNE 5 7 29.94 1014 10 16 0.00 0.00
6:53 am 06:53 Sunny 86 30 61 16.1 43 43 NE 8 13 29.96 1015 10 16 0.00 0.00
7:53 am 07:53 Sunny 88 31.1 60 15.6 39 39 ESE 6 9 29.97 1015 10 16 0.00 0.00
8:53 am 08:53 Sunny 90 32.2 60 15.6 37 37 ESE 7 11 29.98 1015 10 16 0.00 0.00
9:53 am 09:53 Sunny 93 33.9 60 15.6 33 33 ESE 7 11 29.96 1015 10 16 0.00 0.00
10:53 am 10:53 Sunny 96 35.6 60 15.6 30 30 E 8 13 29.96 1015 10 16 0.00 0.00
11:53 am 11:53 Sunny 99 37.2 59 15 27 27 VRB 7 11 29.93 1014 10 16 0.00 0.00
12:53 pm 12:53 Sunny 102 38.9 58 14.4 23 23 VRB 6 9 29.90 1013 10 16 0.00 0.00
1:53 pm 13:53 Sunny 103 39.4 56 13.3 21 21 Calm 29.87 1012 10 16 0.00 0.00
2:53 pm 14:53 Sunny 104 40 55 12.8 20 20 SSE 5 7 29.83 1010 10 16 0.00 0.00
3:53 pm 15:53 Sunny 106 41.1 55 12.8 19 19 NE 6 9 29.79 1009 10 16 0.00 0.00
4:53 pm 16:53 Sunny 107 41.7 51 10.6 15 15 E 6 9 29.77 1008 10 16 0.00 0.00
5:53 pm 17:53 Sunny 107 41.7 49 9.4 14 14 Calm 29.75 1007 10 16 0.00 0.00
6:53 pm 18:53 Sunny 107 41.7 47 8.3 13 13 SSE 3 6 29.74 1007 10 16 0.00 0.00
7:53 pm 19:53 Clear 105 40.6 46 7.8 14 14 SE 6 9 29.74 1007 10 16 0.00 0.00
8:53 pm 20:53 Clear 102 38.9 58 14.4 23 23 ESE 6 9 29.75 1007 10 16 0.00 0.00
9:53 pm 21:53 Clear 100 37.8 58 14.4 25 25 ENE 10 17 29.75 1008 10 16 0.00 0.00
10:53 pm 22:53 Clear 98 36.7 59 15 27 27 E 5 7 29.77 1008 10 16 0.00 0.00
11:53 pm 23:53 Clear 96 35.6 60 15.6 30 30 NW 8 13 29.77 1008 10 16 0.00 0.00

Powered by AerisWeather